�N����,����,�~����,�C��,���x,�C��,����,���ϕ���,�ő�u�ԕ���,�ő厞����,���˗�,�I�_���x,�n�����x,�ő啗���N��,DTYPE
"16/10/28","00:10",0.0,11.9,86.6,1016.8,315.2,1.1,1.7,324.5,0.00,9.8,16.6,"00:04:40",1
"16/10/28","00:20",0.0,11.7,87.1,1017.1,300.9,1.0,1.4,331.1,0.00,9.7,16.7,"00:16:34",1
"16/10/28","00:30",0.0,11.3,87.8,1016.8,302.8,0.8,1.3,325.0,0.00,9.4,16.5,"00:27:14",1
"16/10/28","00:40",0.0,11.1,88.6,1016.4,318.6,1.0,1.4,342.4,0.00,9.3,16.6,"00:34:20",1
"16/10/28","00:50",0.0,11.1,89.0,1016.4,295.2,0.7,1.2,314.9,0.00,9.4,16.6,"00:49:40",1
"16/10/28","01:00",0.0,11.0,89.7,1016.4,292.1,0.7,1.1,317.3,0.00,9.4,16.6,"00:52:22",1
"16/10/28","01:10",0.0,11.0,90.2,1016.1,307.9,0.8,1.3,329.7,0.00,9.5,16.6,"01:09:46",1
"16/10/28","01:20",0.0,11.1,90.0,1016.1,311.0,0.7,1.3,312.4,0.00,9.6,16.6,"01:18:26",1
"16/10/28","01:30",0.0,11.1,90.2,1016.1,286.1,0.8,1.4,326.6,0.00,9.6,16.6,"01:29:42",1
"16/10/28","01:40",0.0,11.0,90.7,1016.4,303.3,1.1,1.7,334.7,0.00,9.6,16.3,"01:39:12",1
"16/10/28","01:50",0.0,11.2,90.7,1016.1,327.4,1.3,2.8,345.2,0.00,9.8,16.2,"01:46:02",1
"16/10/28","02:00",0.0,11.5,89.7,1015.9,327.5,1.5,2.2,337.1,0.00,9.9,16.3,"01:53:14",1
"16/10/28","02:10",0.0,11.6,88.9,1015.9,324.2,1.3,2.2,353.0,0.00,9.9,16.4,"02:08:50",1
"16/10/28","02:20",0.0,11.7,88.2,1015.6,305.7,1.1,1.8,324.1,0.00,9.9,16.2,"02:18:32",1
"16/10/28","02:30",0.0,11.8,87.8,1016.1,302.8,1.0,1.8,320.9,0.00,9.9,16.1,"02:29:08",1
"16/10/28","02:40",0.0,11.8,87.5,1016.1,294.8,1.0,1.6,304.4,0.00,9.8,16.3,"02:32:58",1
"16/10/28","02:50",0.0,11.9,87.3,1016.1,319.7,1.1,2.2,318.0,0.00,9.9,16.2,"02:41:28",1
"16/10/28","03:00",0.0,11.9,87.0,1016.1,316.0,1.3,2.0,327.4,0.00,9.8,16.5,"02:58:02",1
"16/10/28","03:10",0.0,11.9,87.0,1015.6,281.7,1.0,1.2,274.8,0.00,9.8,16.3,"03:02:00",1
"16/10/28","03:20",0.0,11.9,87.6,1015.9,285.3,0.8,1.4,314.1,0.00,9.9,16.4,"03:10:56",1
"16/10/28","03:30",0.0,11.9,87.6,1015.9,320.2,1.3,1.8,324.8,0.00,9.9,16.3,"03:28:10",1
"16/10/28","03:40",0.0,11.8,88.0,1015.9,301.2,1.1,1.3,308.5,0.00,9.9,16.3,"03:31:12",1
"16/10/28","03:50",0.0,11.7,88.2,1015.9,304.1,1.0,1.8,321.4,0.00,9.9,16.3,"03:47:52",1
"16/10/28","04:00",0.0,11.7,88.6,1015.2,312.0,1.2,1.8,336.0,0.00,9.9,16.2,"03:56:56",1
"16/10/28","04:10",0.0,11.6,88.6,1015.6,290.8,1.1,1.6,324.9,0.00,9.8,16.4,"04:00:40",1
"16/10/28","04:20",0.0,11.6,88.7,1014.9,282.3,0.8,1.0,298.0,0.00,9.8,16.2,"04:10:40",1
"16/10/28","04:30",0.0,11.6,89.0,1014.7,285.7,0.8,1.0,290.6,0.00,9.9,16.3,"04:20:08",1
"16/10/28","04:40",0.0,11.6,89.1,1014.7,293.3,1.1,1.6,322.3,0.00,9.9,16.4,"04:32:48",1
"16/10/28","04:50",0.0,11.7,89.2,1014.5,284.5,1.0,1.7,314.8,0.00,10.0,16.2,"04:43:36",1
"16/10/28","05:00",0.0,11.7,89.0,1014.5,281.4,1.0,1.1,293.9,0.00,10.0,16.2,"04:54:48",1
"16/10/28","05:10",0.0,11.8,88.8,1014.0,286.5,1.0,1.4,312.1,0.00,10.1,16.5,"05:05:20",1
"16/10/28","05:20",0.0,11.9,89.2,1014.5,299.0,1.2,1.8,325.2,0.00,10.2,16.3,"05:12:42",1
"16/10/28","05:30",0.0,11.9,88.9,1014.0,285.2,0.7,1.0,278.4,0.00,10.2,16.3,"05:20:24",1
"16/10/28","05:40",0.0,11.9,88.9,1014.5,298.1,1.1,1.8,337.5,0.00,10.2,16.0,"05:36:16",1
"16/10/28","05:50",0.0,12.0,89.1,1014.0,293.2,0.7,1.1,307.7,0.00,10.3,16.2,"05:43:52",1
"16/10/28","06:00",0.0,12.0,89.7,1013.8,301.1,1.0,1.4,321.9,0.00,10.4,16.3,"05:51:44",1
"16/10/28","06:10",0.0,11.9,89.6,1014.0,301.8,1.1,1.6,314.1,0.00,10.3,16.1,"06:08:32",1
"16/10/28","06:20",0.0,12.0,89.6,1013.8,306.1,1.1,2.1,326.8,0.00,10.4,16.1,"06:13:36",1
"16/10/28","06:30",0.0,12.1,89.9,1013.5,303.3,1.0,1.4,317.9,0.00,10.5,16.3,"06:25:20",1
"16/10/28","06:40",0.0,12.1,90.0,1014.0,278.3,0.8,1.1,292.9,0.00,10.6,16.2,"06:37:28",1
"16/10/28","06:50",0.0,12.1,90.1,1014.2,300.3,1.0,1.4,318.7,0.00,10.6,16.4,"06:41:28",1
"16/10/28","07:00",0.0,12.2,90.3,1014.0,314.3,1.3,1.9,324.6,0.00,10.7,16.2,"06:54:16",1
"16/10/28","07:10",0.0,12.4,90.4,1013.8,330.1,1.0,1.6,325.4,0.00,10.9,16.4,"07:00:24",1
"16/10/28","07:20",0.0,12.3,90.0,1013.8,283.6,1.0,1.8,324.0,0.00,10.7,16.3,"07:10:08",1
"16/10/28","07:30",0.0,12.5,89.0,1014.0,289.1,0.7,1.6,310.2,0.00,10.8,16.3,"07:22:32",1
"16/10/28","07:40",0.0,12.9,88.1,1013.8,291.3,0.7,1.3,320.3,0.05,11.0,16.1,"07:30:24",1
"16/10/28","07:50",0.0,13.3,86.7,1013.3,323.4,1.0,1.6,337.7,0.04,11.2,16.5,"07:47:36",1
"16/10/28","08:00",0.0,13.6,86.0,1013.5,308.4,0.8,1.4,334.7,0.03,11.3,16.3,"07:51:44",1
"16/10/28","08:10",0.0,13.7,84.7,1013.3,287.9,0.6,0.9,258.6,0.03,11.2,16.5,"08:00:40",1
"16/10/28","08:20",0.0,13.9,84.1,1013.5,298.4,0.5,1.1,316.0,0.04,11.3,16.6,"08:11:12",1
"16/10/28","08:30",0.0,14.2,82.6,1013.3,302.3,0.7,1.4,314.4,0.04,11.3,16.6,"08:29:52",1
"16/10/28","08:40",0.0,14.6,82.0,1013.3,289.9,0.8,1.2,317.6,0.06,11.6,16.5,"08:30:08",1
"16/10/28","08:50",0.0,14.7,80.9,1013.0,329.3,1.0,1.6,315.5,0.04,11.5,16.6,"08:47:36",1
"16/10/28","09:00",0.0,15.0,80.9,1013.0,292.3,0.8,1.6,320.6,0.06,11.8,16.6,"08:50:48",1
"16/10/28","09:10",0.0,15.3,78.8,1012.8,310.1,0.7,1.4,333.4,0.10,11.7,16.8,"09:08:24",1
"16/10/28","09:20",0.0,15.7,79.0,1012.3,293.5,0.7,1.6,338.3,0.08,12.1,16.7,"09:11:36",1
"16/10/28","09:30",0.0,16.0,77.5,1012.6,312.8,0.5,1.1,341.1,0.10,12.1,16.9,"09:27:36",1
"16/10/28","09:40",0.0,16.7,76.3,1012.3,324.1,0.8,1.3,331.9,0.13,12.6,17.0,"09:31:20",1
"16/10/28","09:50",0.0,17.4,71.2,1011.6,308.9,0.7,1.2,314.8,0.18,12.2,17.4,"09:47:20",1
"16/10/28","10:00",0.0,17.5,68.6,1012.3,266.9,0.7,1.4,240.8,0.10,11.7,17.2,"09:55:04",1
"16/10/28","10:10",0.0,17.5,70.1,1012.1,301.2,0.6,1.3,242.6,0.06,12.0,17.4,"10:02:00",1
"16/10/28","10:20",0.0,17.8,73.1,1012.1,329.1,0.7,1.2,334.7,0.06,13.0,17.3,"10:16:40",1
"16/10/28","10:30",0.0,17.7,73.7,1011.6,283.3,0.5,0.9,255.1,0.05,13.0,17.4,"10:28:08",1
"16/10/28","10:40",0.0,17.8,73.0,1011.6,270.9,0.8,1.7,242.7,0.06,12.9,17.5,"10:32:00",1
"16/10/28","10:50",0.0,17.9,74.8,1011.4,319.5,0.7,1.4,333.0,0.03,13.4,17.5,"10:46:00",1
"16/10/28","11:00",0.0,18.0,77.1,1011.2,315.5,0.3,0.8,333.8,0.05,14.0,17.6,"10:50:32",1
"16/10/28","11:10",0.0,18.1,78.4,1010.7,303.7,0.7,1.2,340.3,0.04,14.3,17.8,"11:03:12",1
"16/10/28","11:20",0.0,18.0,80.8,1010.7,331.7,0.8,1.8,345.0,0.05,14.7,17.7,"11:16:40",1
"16/10/28","11:30",0.0,17.9,83.2,1010.7,305.7,0.7,1.1,307.4,0.05,15.1,17.5,"11:26:08",1
"16/10/28","11:40",0.0,17.8,83.8,1010.0,314.7,0.6,1.4,339.2,0.05,15.1,17.8,"11:32:24",1
"16/10/28","11:50",0.0,17.8,83.7,1010.0,327.6,0.8,1.7,335.9,0.05,15.0,17.7,"11:42:32",1
"16/10/28","12:00",0.0,17.9,83.8,1009.5,317.4,0.8,1.7,342.9,0.05,15.2,17.9,"11:58:24",1
"16/10/28","12:10",0.0,18.0,84.4,1009.0,331.0,1.1,2.0,338.9,0.07,15.4,17.8,"12:05:20",1
"16/10/28","12:20",0.0,18.3,84.7,1008.3,299.3,0.7,1.6,332.8,0.08,15.7,17.9,"12:10:48",1
"16/10/28","12:30",0.0,18.6,83.0,1008.6,298.0,0.8,1.4,320.1,0.08,15.7,18.2,"12:21:44",1
"16/10/28","12:40",0.0,18.8,81.8,1008.8,287.7,0.8,1.4,314.3,0.08,15.7,18.1,"12:33:12",1
"16/10/28","12:50",0.0,18.9,82.1,1007.8,295.8,0.7,1.4,302.1,0.06,15.8,17.9,"12:41:04",1
"16/10/28","13:00",0.0,19.0,83.2,1007.6,299.1,0.7,1.1,336.0,0.06,16.1,17.9,"12:51:52",1
"16/10/28","13:10",0.0,18.8,81.3,1007.6,275.5,0.8,1.7,245.3,0.04,15.6,18.3,"13:08:00",1
"16/10/28","13:20",0.0,18.7,83.1,1007.1,256.7,0.8,1.6,244.1,0.05,15.8,18.3,"13:13:28",1
"16/10/28","13:30",0.0,18.7,82.6,1006.9,306.1,0.6,1.0,343.8,0.05,15.7,18.3,"13:26:32",1
"16/10/28","13:40",0.0,18.6,83.7,1006.2,296.8,0.8,1.8,328.5,0.02,15.8,18.2,"13:32:48",1
"16/10/28","13:50",0.0,18.4,84.5,1006.4,303.6,0.7,1.1,321.7,0.01,15.8,18.2,"13:47:36",1
"16/10/28","14:00",0.0,18.4,85.9,1006.4,299.4,0.6,1.1,303.2,0.02,16.0,18.3,"13:57:36",1
"16/10/28","14:10",0.0,18.3,86.4,1006.4,309.5,0.8,1.6,343.3,0.01,16.0,18.2,"14:04:08",1
"16/10/28","14:20",0.0,18.3,86.9,1006.2,297.4,0.8,1.4,335.6,0.01,16.1,18.3,"14:11:28",1
"16/10/28","14:30",0.0,18.3,87.0,1006.0,304.5,0.7,1.4,329.8,0.01,16.1,18.2,"14:20:02",1
"16/10/28","14:40",0.0,18.2,87.4,1006.0,287.8,0.7,1.4,239.4,0.01,16.1,18.3,"14:39:12",1
"16/10/28","14:50",0.0,18.3,88.2,1005.7,280.7,0.8,1.4,242.8,0.02,16.4,18.2,"14:40:08",1
"16/10/28","15:00",0.0,18.3,88.2,1005.5,286.9,0.7,1.3,319.4,0.01,16.4,18.5,"14:53:28",1
"16/10/28","15:10",0.0,18.4,87.6,1005.5,307.1,1.0,1.4,324.4,0.01,16.3,18.5,"15:04:16",1
"16/10/28","15:20",0.0,18.4,87.7,1005.5,302.6,0.7,1.2,311.3,0.00,16.4,18.3,"15:10:08",1
"16/10/28","15:30",0.0,18.4,88.3,1005.5,301.4,0.6,1.1,327.3,0.00,16.5,18.5,"15:20:32",1
"16/10/28","15:40",0.6,18.3,89.2,1005.0,322.4,1.0,1.6,341.9,0.00,16.5,18.4,"15:37:12",1
"16/10/28","15:50",0.4,18.1,90.4,1004.8,334.0,1.1,1.9,337.8,0.00,16.5,18.3,"15:49:36",1
"16/10/28","16:00",0.4,17.9,91.3,1005.2,311.1,1.0,2.0,333.8,0.00,16.5,18.4,"15:50:40",1
"16/10/28","16:10",0.8,17.6,92.0,1004.8,338.3,1.2,2.1,335.8,0.00,16.3,18.4,"16:02:32",1
"16/10/28","16:20",1.4,17.5,92.6,1004.5,323.7,1.1,1.7,344.9,0.00,16.3,18.2,"16:11:04",1
"16/10/28","16:30",1.6,17.4,93.1,1004.8,295.0,0.8,1.1,308.6,0.00,16.3,18.5,"16:21:12",1
"16/10/28","16:40",1.4,17.3,93.6,1005.0,291.9,0.8,1.2,280.6,0.00,16.3,18.2,"16:30:08",1
"16/10/28","16:50",3.2,17.1,94.1,1004.5,269.9,0.6,1.2,244.2,0.00,16.2,18.3,"16:41:52",1
"16/10/28","17:00",0.8,17.0,94.5,1004.5,238.4,0.5,1.2,204.9,0.00,16.2,18.2,"16:56:08",1
"16/10/28","17:10",0.0,17.0,94.8,1004.3,278.6,0.5,0.9,241.6,0.00,16.2,18.2,"17:00:08",1
"16/10/28","17:20",0.2,16.9,95.0,1004.8,305.8,0.6,1.1,243.1,0.00,16.1,18.2,"17:10:32",1
"16/10/28","17:30",0.4,17.0,95.3,1004.5,349.0,0.6,1.2,336.6,0.00,16.3,18.2,"17:22:56",1
"16/10/28","17:40",0.6,17.0,95.4,1004.3,358.3,0.5,1.1,342.7,0.00,16.3,18.2,"17:38:24",1
"16/10/28","17:50",0.2,16.9,95.6,1004.3,330.3,0.5,1.2,354.3,0.00,16.2,18.0,"17:47:44",1
"16/10/28","18:00",0.0,16.9,95.8,1004.1,307.3,0.3,1.3,325.0,0.00,16.3,18.0,"17:59:28",1
"16/10/28","18:10",0.0,16.9,95.9,1004.3,294.3,0.6,1.3,345.6,0.00,16.3,18.1,"18:07:52",1
"16/10/28","18:20",0.0,17.0,96.1,1004.5,272.3,1.0,2.0,231.7,0.00,16.4,18.2,"18:14:08",1
"16/10/28","18:30",0.0,16.9,96.2,1004.1,280.0,0.6,1.7,238.1,0.00,16.3,17.9,"18:20:56",1
"16/10/28","18:40",0.0,17.0,96.3,1004.3,331.8,0.6,1.2,342.9,0.00,16.4,17.8,"18:36:16",1
"16/10/28","18:50",0.0,17.0,96.3,1004.1,342.4,0.8,1.6,354.4,0.00,16.4,18.3,"18:47:04",1
"16/10/28","19:00",0.0,16.9,96.4,1004.1,285.2,0.3,0.9,346.2,0.00,16.4,18.1,"18:50:08",1
"16/10/28","19:10",0.0,17.0,96.5,1003.8,277.6,0.1,0.4,238.7,0.00,16.5,18.0,"19:00:56",1
"16/10/28","19:20",0.0,17.0,96.6,1003.8,311.9,0.6,0.9,340.5,0.00,16.5,18.1,"19:12:40",1
"16/10/28","19:30",0.0,17.0,96.7,1003.8,306.0,0.6,1.0,338.2,0.00,16.5,18.0,"19:20:16",1
"16/10/28","19:40",0.0,17.0,96.7,1004.1,310.3,0.6,0.9,303.3,0.00,16.5,17.8,"19:39:44",1
"16/10/28","19:50",0.2,17.0,96.8,1004.1,334.4,0.5,1.3,310.6,0.00,16.5,17.8,"19:40:08",1
"16/10/28","20:00",0.2,17.0,96.8,1003.6,330.5,0.7,1.2,342.0,0.00,16.5,18.0,"19:55:04",1
"16/10/28","20:10",0.0,17.0,96.9,1004.1,307.7,0.3,0.6,312.9,0.00,16.5,18.0,"20:06:44",1
"16/10/28","20:20",0.0,17.0,97.0,1003.8,287.5,0.1,0.6,261.2,0.00,16.6,18.2,"20:18:08",1
"16/10/28","20:30",0.0,17.0,97.0,1004.1,297.3,0.5,1.0,319.5,0.00,16.6,18.0,"20:24:24",1
"16/10/28","20:40",0.2,17.1,97.0,1004.3,349.9,0.8,1.6,343.2,0.00,16.7,18.2,"20:34:56",1
"16/10/28","20:50",0.4,17.0,97.1,1004.1,31.4,0.6,1.8,342.6,0.00,16.6,18.3,"20:40:24",1
"16/10/28","21:00",0.0,17.1,97.2,1004.3,31.2,0.6,1.8,86.7,0.00,16.7,18.1,"20:57:20",1
"16/10/28","21:10",0.0,17.1,97.2,1004.3,0.7,0.5,1.2,0.6,0.00,16.7,17.9,"21:09:44",1
"16/10/28","21:20",0.0,17.1,97.2,1004.3,318.6,0.6,0.8,50.6,0.00,16.7,18.1,"21:10:08",1
"16/10/28","21:30",0.2,17.1,97.3,1004.1,281.4,0.5,1.1,222.4,0.00,16.7,18.0,"21:25:28",1
"16/10/28","21:40",0.2,17.1,97.3,1004.5,256.6,0.2,0.8,252.8,0.00,16.7,18.2,"21:31:20",1
"16/10/28","21:50",0.0,17.1,97.3,1004.5,30.6,0.2,0.8,100.1,0.00,16.7,18.1,"21:44:08",1
"16/10/28","22:00",0.0,17.1,97.4,1004.1,4.4,0.5,0.8,0.9,0.00,16.7,18.0,"21:52:16",1
"16/10/28","22:10",0.2,17.1,97.4,1004.8,342.6,0.3,0.5,348.6,0.00,16.7,18.1,"22:03:04",1
"16/10/28","22:20",0.0,17.1,97.4,1004.5,6.5,0.3,0.6,344.5,0.00,16.7,18.1,"22:11:20",1
"16/10/28","22:30",0.0,17.1,97.4,1004.5,316.2,0.2,0.8,48.7,0.00,16.7,18.1,"22:21:36",1
"16/10/28","22:40",0.0,17.1,97.4,1004.5,352.1,0.2,0.5,310.1,0.00,16.7,17.9,"22:33:28",1
"16/10/28","22:50",0.0,17.1,97.5,1004.3,333.6,0.6,0.9,355.1,0.00,16.7,18.1,"22:41:20",1
"16/10/28","23:00",0.0,17.1,97.5,1004.5,19.6,0.3,0.6,335.1,0.00,16.7,18.0,"22:50:08",1
"16/10/28","23:10",0.0,17.1,97.6,1004.5,341.8,0.6,0.9,325.4,0.00,16.8,18.0,"23:01:44",1
"16/10/28","23:20",0.0,17.1,97.5,1005.0,304.8,0.7,1.2,303.6,0.00,16.7,17.9,"23:17:20",1
"16/10/28","23:30",0.0,17.0,97.4,1005.0,341.0,0.8,2.0,330.6,0.00,16.6,18.2,"23:28:24",1
"16/10/28","23:40",0.0,16.9,97.4,1005.0,335.8,0.8,1.7,357.5,0.00,16.5,17.9,"23:36:08",1
"16/10/28","23:50",0.0,17.0,97.5,1004.3,340.7,0.7,1.4,355.4,0.00,16.6,18.0,"23:46:40",1
"16/10/28","24:00",0.0,17.0,97.3,1004.5,337.0,1.1,2.7,8.0,0.00,16.6,18.0,"23:59:12",1
